Tracking 30923 objects as of 1-Jul-2025
HD Live streaming from Space Station
objects crossing your sky now

STARLINK-30402

Track STARLINK-30402 now!
10-day predictions
STARLINK-30402 is classified as:


NORAD ID: 57827
Int'l Code: 2023-138V
Perigee: 565.2 km
Apogee: 567.3 km
Inclination: 43.0 °
Period: 95.8 minutes
Semi major axis: 6937 km
RCS: Unknown
Launch date: September 9, 2023
Source: United States (US)
Launch site: AIR FORCE EASTERN TEST RANGE (AFETR)
Your satellite tracking list
Your tracking list is empty




NASA's NSSDC Master Catalog

Two Line Element Set (TLE):
1 57827U 23138V   25181.36844073  .00000514  00000-0  53159-4 0  9995
2 57827  43.0031 166.8347 0001520 283.3896  76.6777 15.02532686100755
Source of the keplerian elements: AFSPC